Location: ???????
(55.3754°N, 39.3545°E)
Time: 07:10:57
(UTC+00:00)

Cosmos 1459 Rocket - Pass Details

Date: 14 April 2026
Orbit: 935 x 999 km, 83.0° (Epoch: 13 May)

Event Time Altitude Azimuth Distance (km) Brightness Sun altitude
Exits shadow 20:12:00 40° 122° (ESE) 1,443 4.5 -23.3°
Maximum altitude 20:13:22 45° 89° (E) 1,331 4.5 -23.4°
Drops below altitude 10° 20:19:20 10° 20° (NNE) 2,763 7.1 -23.6°
Sets 20:21:57 0° 14° (NNE) 3,708 8.0 -23.7°
